DW8338 Weather Reports


time (UTC)temp
F
wind
direction
speed
knots
gust
knots
rain 1hr
in
rain 24hr
in
rain mn
in
humidity
%
barometer
mb
20260507044304 58 213 1.7 2.6 0.00 0.00 0.00 80 1008.6
20260507043804 58 192 1.7 2.6 0.00 0.00 0.00 80 1008.4
20260507043303 58 178 0.9 2.6 0.00 0.00 0.00 80 1008.4
20260507042804 58 198 1.7 2.6 0.00 0.00 0.00 80 1008.4
20260507042306 58 210 1.7 2.6 0.00 0.00 0.00 80 1008.4
20260507041804 58 196 0.9 6.1 0.00 0.00 0.00 80 1008.4
20260507041304 59 183 2.6 5.2 0.00 0.00 0.00 80 1008.3
20260507040804 59 153 1.7 6.1 0.00 0.00 0.00 79 1008.3
20260507040303 59 130 0.9 2.6 0.00 0.00 0.00 79 1008.3
20260507035804 59 163 1.7 2.6 0.00 0.00 0.00 79 1008.3
20260507034304 59 169 1.7 4.3 0.00 0.00 0.00 79 1008.3
20260507033803 59 154 2.6 5.2 0.00 0.00 0.00 78 1008.3
20260507033304 59 185 1.7 5.2 0.00 0.00 0.00 78 1008.3
20260507032804 59 132 0.0 1.7 0.00 0.00 0.00 78 1008.4
20260507031804 59 190 0.9 5.2 0.00 0.00 0.00 77 1008.4
20260507031304 59 165 2.6 4.3 0.00 0.00 0.00 77 1008.2
20260507030804 59 167 3.5 6.1 0.00 0.00 0.00 77 1008.2
20260507030304 59 180 2.6 6.1 0.00 0.00 0.00 77 1008.2
20260507025803 59 168 2.6 5.2 0.00 0.00 0.00 78 1008.2
20260507025306 59 152 1.7 2.6 0.00 0.00 0.00 78 1008.2
20260507024804 59 129 0.0 0.9 0.00 0.00 0.00 77 1008.2
20260507024303 59 168 0.0 2.6 0.00 0.00 0.00 77 1008.2
20260507023804 59 156 1.7 2.6 0.00 0.00 0.00 77 1008.2
20260507023304 59 187 0.0 1.7 0.00 0.00 0.00 77 1008.1
20260507022804 59 170 0.9 1.7 0.00 0.00 0.00 77 1008.1
20260507022306 59 181 1.7 2.6 0.00 0.00 0.00 77 1008.1
20260507021804 59 175 1.7 2.6 0.00 0.00 0.00 77 1008.1
20260507021304 59 197 2.6 4.3 0.00 0.00 0.00 77 1008.1
20260507020804 59 198 2.6 4.3 0.00 0.00 0.00 76 1008.1
20260507020303 59 182 1.7 2.6 0.00 0.00 0.00 76 1008.1
20260507015306 59 158 3.5 6.1 0.00 0.00 0.00 76 1008.3
20260507014804 59 177 2.6 6.1 0.00 0.00 0.00 76 1008.3
20260507014304 59 191 2.6 6.1 0.00 0.00 0.00 76 1008.3
20260507013804 59 198 2.6 7.0 0.00 0.00 0.00 75 1008.3
20260507013304 59 179 3.5 6.1 0.00 0.00 0.00 75 1008.4
20260507012804 59 187 3.5 6.1 0.00 0.00 0.00 75 1008.4
20260507012306 59 195 4.3 7.0 0.00 0.00 0.00 75 1008.4
20260507011804 59 189 4.3 6.1 0.00 0.00 0.00 75 1008.4
20260507011304 59 178 3.5 6.1 0.00 0.00 0.00 75 1008.5
20260507010804 59 192 2.6 4.3 0.00 0.00 0.00 75 1008.6
20260507005804 59 160 1.7 4.3 0.00 0.00 0.00 75 1008.7
20260507005305 59 184 2.6 5.2 0.00 0.00 0.00 75 1008.7
20260507004804 59 182 3.5 6.1 0.00 0.00 0.00 75 1008.7
20260507004304 59 161 3.5 6.1 0.00 0.00 0.00 75 1008.8
20260507003804 59 176 2.6 4.3 0.00 0.00 0.00 75 1008.8
20260507002306 60 197 4.3 6.1 0.00 0.00 0.00 74 1008.8
20260507001804 60 184 4.3 7.0 0.00 0.00 0.00 74 1008.8
20260507001303 60 202 2.6 7.0 0.00 0.00 0.00 74 1008.8
20260507000804 60 179 4.3 7.8 0.00 0.00 0.00 74 1009.0
20260507000306 60 160 4.3 8.7 0.00 0.00 0.00 74 1009.0
20260506235804 60 163 4.3 10.4 0.00 0.00 0.00 74 1009.0
20260506235306 60 163 5.2 7.8 0.00 0.00 0.00 74 1009.0
20260506234804 60 167 4.3 7.8 0.00 0.00 0.00 74 1009.0
20260506234303 60 154 4.3 7.0 0.00 0.00 0.00 74 1009.0
20260506233304 61 177 4.3 7.0 0.00 0.00 0.00 73 1009.1
20260506232804 61 162 2.6 6.1 0.00 0.00 0.00 73 1009.1
20260506232306 61 187 1.7 5.2 0.00 0.00 0.00 73 1009.0
20260506231804 61 172 4.3 7.0 0.00 0.00 0.00 73 1009.1
20260506231303 61 181 2.6 5.2 0.00 0.00 0.00 73 1009.1
20260506230804 61 165 2.6 5.2 0.00 0.00 0.00 73 1009.1
20260506230304 61 199 2.6 5.2 0.00 0.00 0.00 72 1009.1
20260506225804 61 186 1.7 4.3 0.00 0.00 0.00 72 1009.2
20260506225305 61 191 3.5 5.2 0.00 0.00 0.00 71 1009.2
20260506224804 61 194 2.6 5.2 0.00 0.00 0.00 71 1009.1
20260506224303 62 185 3.5 6.1 0.00 0.00 0.00 70 1009.2
20260506223804 62 180 4.3 7.0 0.00 0.00 0.00 69 1009.2
20260506221804 62 164 4.3 8.7 0.00 0.00 0.00 66 1009.1
20260506221304 62 168 3.5 6.1 0.00 0.00 0.00 65 1009.0
20260506220803 63 177 3.5 5.2 0.00 0.00 0.00 64 1009.0
20260506220303 63 169 2.6 6.1 0.00 0.00 0.00 63 1009.0
20260506215804 63 182 4.3 7.0 0.00 0.00 0.00 63 1009.0
20260506215306 63 163 4.3 7.0 0.00 0.00 0.00 62 1009.1
20260506214303 63 180 5.2 7.0 0.00 0.00 0.00 61 1009.0
20260506213804 64 180 4.3 7.8 0.00 0.00 0.00 60 1009.0
20260506212804 65 172 3.5 6.1 0.00 0.00 0.00 58 1008.9
20260506212306 65 179 3.5 6.1 0.00 0.00 0.00 58 1008.7
20260506211804 65 164 3.5 7.0 0.00 0.00 0.00 57 1008.7
20260506211304 65 174 3.5 6.1 0.00 0.00 0.00 57 1008.7
20260506210804 65 198 2.6 5.2 0.00 0.00 0.00 57 1008.6
20260506210304 65 189 2.6 6.1 0.00 0.00 0.00 56 1008.4
20260506205803 66 189 1.7 5.2 0.00 0.00 0.00 56 1008.4
20260506204304 66 226 2.6 10.4 0.00 0.00 0.00 55 1008.2
20260506203804 66 233 1.7 5.2 0.00 0.00 0.00 55 1008.2
20260506203305 66 208 2.6 6.1 0.00 0.00 0.00 55 1008.2
20260506202804 67 201 3.5 6.1 0.00 0.00 0.00 54 1008.1
20260506202306 67 189 4.3 8.7 0.00 0.00 0.00 54 1008.1
20260506201804 67 211 3.5 7.0 0.00 0.00 0.00 54 1008.0
20260506201304 67 199 4.3 8.7 0.00 0.00 0.00 53 1008.0
20260506200804 67 205 2.6 7.0 0.00 0.00 0.00 53 1008.0
20260506200304 68 218 5.2 7.8 0.00 0.00 0.00 53 1008.0
20260506195804 68 224 4.3 10.4 0.00 0.00 0.00 52 1008.0
20260506194804 69 219 3.5 8.7 0.00 0.00 0.00 51 1007.9
20260506194304 69 226 4.3 7.0 0.00 0.00 0.00 50 1007.8
20260506193803 69 221 2.6 5.2 0.00 0.00 0.00 50 1007.7
20260506193304 69 197 5.2 10.4 0.00 0.00 0.00 50 1007.7
20260506192804 69 233 6.1 10.4 0.00 0.00 0.00 50 1007.6
20260506192305 70 233 7.8 12.2 0.00 0.00 0.00 51 1007.5
20260506191303 70 225 6.1 10.4 0.00 0.00 0.00 50 1007.4
20260506190804 70 224 7.0 11.3 0.00 0.00 0.00 49 1007.3
20260506190304 71 226 4.3 8.7 0.00 0.00 0.00 48 1007.3
20260506185804 71 240 6.1 12.2 0.00 0.00 0.00 48 1007.3
20260506185306 71 245 5.2 11.3 0.00 0.00 0.00 47 1007.3
20260506184804 72 257 6.1 8.7 0.00 0.00 0.00 47 1007.2
20260506184304 72 255 5.2 8.7 0.00 0.00 0.00 47 1007.2
20260506183804 72 227 8.7 13.9 0.00 0.00 0.00 47 1007.2
20260506183304 72 253 6.1 10.4 0.00 0.00 0.00 46 1007.2
20260506182804 73 253 6.1 12.2 0.00 0.00 0.00 46 1007.2
20260506182306 73 241 7.8 12.2 0.00 0.00 0.00 45 1007.2
20260506181803 73 201 5.2 10.4 0.00 0.00 0.00 46 1007.2
20260506181303 73 212 7.8 13.9 0.00 0.00 0.00 46 1007.1
20260506180804 73 236 7.8 13.0 0.00 0.00 0.00 44 1007.1
20260506180304 73 241 8.7 12.2 0.00 0.00 0.00 43 1007.1
20260506175804 74 227 7.8 11.3 0.00 0.00 0.00 42 1007.1
20260506175306 74 231 6.1 10.4 0.00 0.00 0.00 41 1007.1
20260506174804 75 258 4.3 7.8 0.00 0.00 0.00 41 1007.1
20260506174304 75 239 6.1 8.7 0.00 0.00 0.00 40 1007.1
20260506173804 75 238 7.0 10.4 0.00 0.00 0.00 41 1007.1
20260506172306 75 241 6.1 10.4 0.00 0.00 0.00 41 1007.3
20260506171803 75 178 5.2 13.9 0.00 0.00 0.00 41 1007.3
20260506171303 76 220 6.1 12.2 0.00 0.00 0.00 40 1007.3
20260506170804 76 204 5.2 10.4 0.00 0.00 0.00 40 1007.3
20260506170304 76 219 4.3 10.4 0.00 0.00 0.00 40 1007.3
20260506165803 76 223 6.1 11.3 0.00 0.00 0.00 40 1007.3
20260506165305 76 211 7.8 11.3 0.00 0.00 0.00 40 1007.3
20260506164304 77 218 5.2 10.4 0.00 0.00 0.00 40 1007.5
20260506163803 76 193 5.2 13.9 0.00 0.00 0.00 40 1007.5
20260506163304 76 202 7.8 12.2 0.00 0.00 0.00 39 1007.4
20260506162803 76 198 9.6 14.8 0.00 0.00 0.00 38 1007.4
20260506162306 77 160 5.2 10.4 0.00 0.00 0.00 38 1007.4
20260506161304 77 142 4.3 7.8 0.00 0.00 0.00 34 1007.5
20260506160803 77 212 4.3 6.1 0.00 0.00 0.00 34 1007.5
20260506160304 77 129 3.5 7.0 0.00 0.00 0.00 34 1007.5
20260506155803 77 172 2.6 7.8 0.00 0.00 0.00 36 1007.5
20260506154804 76 107 3.5 7.8 0.00 0.00 0.00 35 1007.6
20260506153804 76 122 2.6 7.0 0.00 0.00 0.00 36 1007.7
20260506152804 76 77 6.1 10.4 0.00 0.00 0.00 36 1008.1
20260506152305 76 72 2.6 7.8 0.00 0.00 0.00 37 1008.1
20260506151803 75 126 0.9 6.1 0.00 0.00 0.00 38 1008.1
20260506151304 76 128 5.2 7.0 0.00 0.00 0.00 37 1008.2
20260506150804 76 179 6.1 8.7 0.00 0.00 0.00 36 1008.2
20260506150305 76 134 0.9 2.6 0.00 0.00 0.00 36 1008.3
20260506145803 76 134 2.6 4.3 0.00 0.00 0.00 36 1008.3
20260506145305 76 178 1.7 6.1 0.00 0.00 0.00 37 1008.4
20260506144803 76 187 2.6 7.0 0.00 0.00 0.00 36 1008.6
20260506143803 75 156 2.6 7.0 0.00 0.00 0.00 37 1008.8
20260506143304 75 160 5.2 10.4 0.00 0.00 0.00 37 1008.8
20260506142804 75 171 2.6 5.2 0.00 0.00 0.00 37 1008.8
20260506141804 75 70 1.7 5.2 0.00 0.00 0.00 37 1009.0
20260506141304 74 71 2.6 7.0 0.00 0.00 0.00 37 1009.1
20260506140304 74 109 6.1 10.4 0.00 0.00 0.00 37 1009.2
20260506135804 74 78 3.5 7.8 0.00 0.00 0.00 37 1009.2
20260506135306 74 156 2.6 7.8 0.00 0.00 0.00 37 1009.3
20260506134803 75 193 3.5 7.8 0.00 0.00 0.00 37 1009.3
20260506134304 75 155 5.2 10.4 0.00 0.00 0.00 37 1009.3
20260506133804 75 123 2.6 7.0 0.00 0.00 0.00 36 1009.5
20260506133304 75 268 0.0 6.1 0.00 0.00 0.00 37 1009.5
20260506132804 74 18 0.9 5.2 0.00 0.00 0.00 38 1009.6
20260506132307 74 315 3.5 6.1 0.00 0.00 0.00 38 1009.7
20260506131304 73 136 2.6 6.1 0.00 0.00 0.00 38 1009.8
20260506130804 73 187 5.2 8.7 0.00 0.00 0.00 38 1009.9
20260506130304 73 170 4.3 7.8 0.00 0.00 0.00 38 1010.0
20260506125804 73 149 2.6 8.7 0.00 0.00 0.00 38 1010.0
20260506125305 73 215 4.3 10.4 0.00 0.00 0.00 39 1010.0
20260506124804 73 239 6.1 10.4 0.00 0.00 0.00 38 1010.0
20260506123803 73 38 1.7 5.2 0.00 0.00 0.00 37 1010.0
20260506123304 73 78 0.9 5.2 0.00 0.00 0.00 38 1010.1
20260506122804 73 60 3.5 7.8 0.00 0.00 0.00 39 1010.1
20260506122306 73 65 3.5 6.1 0.00 0.00 0.00 37 1010.2
20260506121804 73 319 3.5 8.7 0.00 0.00 0.00 38 1010.2
20260506121303 73 58 1.7 6.1 0.00 0.00 0.00 38 1010.2
20260506120304 72 265 1.7 4.3 0.00 0.00 0.00 39 1010.4
20260506115803 72 277 3.5 7.0 0.00 0.00 0.00 41 1010.6
20260506115306 71 227 4.3 6.1 0.00 0.00 0.00 41 1010.6
20260506114804 72 269 4.3 10.4 0.00 0.00 0.00 39 1010.6
20260506114303 72 345 1.7 5.2 0.00 0.00 0.00 40 1010.6
20260506113804 72 277 1.7 4.3 0.00 0.00 0.00 41 1010.6
20260506113303 72 303 2.6 4.3 0.00 0.00 0.00 41 1010.6
20260506112804 72 291 4.3 7.0 0.00 0.00 0.00 40 1010.6
20260506112306 72 275 0.9 2.6 0.00 0.00 0.00 42 1010.7
20260506111304 72 28 0.0 1.7 0.00 0.00 0.00 42 1010.8
20260506110304 70 89 0.9 2.6 0.00 0.00 0.00 45 1011.0
20260506105305 70 292 1.7 2.6 0.00 0.00 0.00 45 1011.0
20260506104804 71 300 1.7 2.6 0.00 0.00 0.00 45 1011.0
20260506104304 71 246 0.9 1.7 0.00 0.00 0.00 47 1011.0
20260506103804 70 48 1.7 4.3 0.00 0.00 0.00 47 1011.0
20260506103304 70 26 1.7 5.2 0.00 0.00 0.00 47 1011.2
20260506102804 70 14 2.6 4.3 0.00 0.00 0.00 47 1011.1
20260506101803 69 166 1.7 5.2 0.00 0.00 0.00 50 1011.2
20260506100803 69 333 0.9 4.3 0.00 0.00 0.00 50 1011.3
20260506100303 70 36 2.6 5.2 0.00 0.00 0.00 49 1011.3
20260506095804 70 171 0.9 1.7 0.00 0.00 0.00 49 1011.3
20260506095305 69 80 0.0 2.6 0.00 0.00 0.00 51 1011.3
20260506094303 68 79 1.7 4.3 0.00 0.00 0.00 52 1011.3
20260506093804 67 73 0.9 2.6 0.00 0.00 0.00 53 1011.3
20260506093304 67 98 1.7 4.3 0.00 0.00 0.00 54 1011.3
20260506092306 66 78 0.0 2.6 0.00 0.00 0.00 56 1011.3
20260506091803 65 96 1.7 4.3 0.00 0.00 0.00 56 1011.3
20260506091303 65 110 0.9 5.2 0.00 0.00 0.00 56 1011.3
20260506090804 65 77 0.9 2.6 0.00 0.00 0.00 57 1011.3
20260506090304 65 223 0.9 2.6 0.00 0.00 0.00 57 1011.4
20260506085803 64 50 0.9 2.6 0.00 0.00 0.00 58 1011.4
20260506084803 64 17 2.6 5.2 0.00 0.00 0.00 59 1011.4
20260506084303 64 348 1.7 2.6 0.00 0.00 0.00 59 1011.4
20260506083804 63 43 0.9 5.2 0.00 0.00 0.00 59 1011.4
20260506082804 63 43 1.7 2.6 0.00 0.00 0.00 61 1011.4
20260506082305 62 314 2.6 4.3 0.00 0.00 0.00 61 1011.4
20260506081803 62 348 1.7 5.2 0.00 0.00 0.00 62 1011.4
20260506081304 62 37 1.7 4.3 0.00 0.00 0.00 62 1011.4
20260506080804 62 343 3.5 5.2 0.00 0.00 0.00 62 1011.4
20260506080304 62 348 3.5 6.1 0.00 0.00 0.00 63 1011.4
20260506073304 61 353 4.3 5.2 0.00 0.00 0.00 65 1011.5
20260506072804 61 15 3.5 6.1 0.00 0.00 0.00 64 1011.5
20260506072306 61 17 2.6 5.2 0.00 0.00 0.00 65 1011.5
20260506071804 60 33 1.7 4.3 0.00 0.00 0.00 65 1011.5
20260506071304 60 344 1.7 4.3 0.00 0.00 0.00 66 1011.4
20260506070803 60 29 1.7 6.1 0.00 0.00 0.00 66 1011.3
20260506062306 58 0 2.6 4.3 0.00 0.00 0.00 68 1011.3
20260506061804 58 353 2.6 6.1 0.00 0.00 0.00 68 1011.3
20260506060803 58 6 3.5 6.1 0.00 0.00 0.00 68 1011.2
20260506060303 58 8 4.3 6.1 0.00 0.00 0.00 68 1011.1
20260506051304 57 337 2.6 4.3 0.00 0.00 0.00 69 1011.0
20260506050803 57 344 1.7 4.3 0.00 0.00 0.00 69 1011.0
20260506050304 58 315 1.7 2.6 0.00 0.00 0.00 69 1010.9
20260506044804 58 317 2.6 2.6 0.00 0.00 0.00 68 1011.0